User: anonymous   Login
Location: Unspecified
(0.0000°N, 0.0000°E)
Time: 06:57:43
(UTC+00:00)
Language:

PAYLOAD B - Orbit

View from above orbital plane
View from above orbital plane
View from above satellite
View from above satellite

Ground track
Ground track

The orbit data is extracted from the following two-line orbital elements,

1 27431U 02024B   18048.48441612 -.00000049  00000-0 -20044-5 0  9996
2 27431  99.0633  26.7088 0016259 119.8565 240.4223 14.09644282810969
Epoch (UTC): 17 February 2018 11:37:33
Eccentricity: 0.0016259
inclination: 99.0633°
perigee height: 849 km
apogee height: 872 km
right ascension of ascending node: 26.7088°
argument of perigee: 119.8565°
revolutions per day: 14.09644282
mean anomaly at epoch: 240.4223°
orbit number at epoch: 81096

The dashed part of the orbit path shows where the satellite is in the earth's shadow,  

DLR